DECAYED
Showing default

FLOCK 4S 41, 47698 (Decayed)

Orbit data source: Space-Track

FLOCK 4S 41, 47698 was a payload satellite owned by Planet (US) in LEO that was launched on Sun, 24 Jan 2021 UTC via an FALCON 9 launch vehicle from the Air Force Eastern Test Range (AFETR). Payload-class satellites include a variety of spacecraft equipped with specific instruments for various scientific and technological missions. These include communications satellites like Starlink; space stations such as the ISS; scientific satellites like the Hubble; Earth observation satellites from companies like Planet Labs, Umbra, and HawkEye 360; GPS; miniature CubeSats for education and research; and military/defense satellites.

Not visible in the next 10 days
Identifier
47698, 2021-006ER
Orbit
Decayed
Last TLE update
10 months ago
Origin
Manufacturer
Planet
Mission
Decayed Commercial Imaging
Bus & Motor
CUBESAT 3U, Unknown motor
Mass
5.7 kg wet, 5.7 kg dry
Launch date (UTC)
2021-01-24 (5 years ago)
Launch vehicle
FALCON 9
Launch site
Air Force Eastern Test Range (AFETR)
Object type
Payload
Rocket body
Debris
Shape & HBR
Box + 2 Pan, 0.1 m
Radar Cross Section
0.108 m², Small (<0.1 m²)

Expand to show TLE details & history

TLE from 10 months ago
0 FLOCK 4S 41
1 47698U 21006ER  24285.43778813  .12042954  24346-5  24305-2 0  9992
2 47698  97.2940 355.2664 0010509 267.5744  92.4348 16.31245949207102
Epoch: 2024-10-11T10:30Z
TLE epoch observation values (Epoch: 2024-10-11T10:30:24.894Z)
Latitude
-0.00001°
Longitude
177.15469°
Altitude
192.737 km
Speed
7.79 km/s
True Right ascension
23h 41m 03s
True Declination
0° 00' 00"
Sunlit
Object was in full shadow at epoch
Visualization orbit readout
Visualization observer readout
Orbital elements
Apogee altitude
192.906 km
Perigee altitude
179.11 km
Semi-major axis
6,564.145 km
Eccentricity
0.00105
Inclination
97.294°
RAAN
355.2664°
Arg. of periapsis
267.5744°
True anomaly
92.55511°
Mean anomaly
92.4348°
Eccentric anomaly
92.49496°
Mean motion
4.08109 °/min
Orbital period
88.21 mins
BSTAR
0.0024305
Loading maneuver chart data...
Loading SW <> Apogee altitude chart data...
|